Pottstown, PA

6:04 PM EDT on April 23, 2018 (GMT -0400)
Pottstown Limerick

Weather History for KPTW - March, 2013

Change the Weather History Date:

Tuesday, March 12, 2013

  Actual Average (KRDG) Record (KRDG)
Temperature  
Mean Temperature 49 °F -  
Max Temperature 57 °F 44 °F 81 °F (1990)
Min Temperature 39 °F 28 °F 10 °F (1900)
Degree Days  
Heating Degree Days 16    
Moisture  
Dew Point 49 °F    
Average Humidity 88    
Maximum Humidity 100    
Minimum Humidity 70    
Precipitation  
Precipitation 1.11 in - - ()
Sea Level Pressure  
Sea Level Pressure 29.81 in    
Wind  
Wind Speed 7 mph (SW)    
Max Wind Speed 13 mph    
Max Gust Speed 25 mph    
Visibility 7 miles    
Events Rain    
Averages and records for this station are not official NWS values.
T = Trace of Precipitation, MM = Missing Value Source: NWS Daily Summary

Daily Weather History Graph

Daily Weather History Graph

Search for Another Location

Airport or City:

Astronomy

Mar. 12, 2013 Rise Set
Actual Time 7:18 AM EDT 7:06 PM EDT
Civil Twilight 6:51 AM EDT 7:33 PM EDT
Nautical Twilight 6:19 AM EDT 8:04 PM EDT
Astronomical Twilight 5:47 AM EDT 8:36 PM EDT
Moon 7:23 AM EDT (3/12) 8:19 PM EDT (3/12)
Length of Visible Light 12h 42m
Length of Day
11h 47m
New Moon, 1% of the Moon is Illuminated
Mar 12
New Moon
Mar 19
First Quarter
Mar 27
Full
Apr 3
Last Quarter
Apr 10
New

Hourly Weather History & Observations

Time (EDT) Temp. Windchill Dew Point Humidity Pressure Visibility Wind Dir Wind Speed Gust Speed Precip Events Conditions
12:54 AM 54.0 °F - 48.0 °F 80% 29.98 in 10.0 mi Variable 6.9 mph - N/A   Overcast
2:54 AM 54.0 °F - 48.9 °F 83% 29.95 in 9.0 mi SSE 8.1 mph - 0.02 in Rain Light Rain
3:54 AM 53.1 °F - 48.9 °F 86% 29.93 in 10.0 mi Variable 4.6 mph - 0.01 in Rain Light Rain
4:54 AM 52.0 °F - 50.0 °F 93% 29.90 in 10.0 mi Variable 5.8 mph - 0.01 in Rain Light Rain
5:29 AM 51.8 °F - 50.0 °F 94% 29.90 in 10.0 mi Variable 5.8 mph - 0.02 in Rain Light Rain
5:54 AM 53.1 °F - 50.0 °F 89% 29.90 in 10.0 mi SSE 8.1 mph - 0.03 in Rain Light Rain
6:02 AM 53.6 °F - 50.0 °F 88% 29.90 in 10.0 mi SE 5.8 mph - 0.00 in Rain Light Rain
6:54 AM 53.1 °F - 51.1 °F 93% 29.87 in 10.0 mi Variable 6.9 mph - 0.00 in Rain Light Rain
7:04 AM 53.6 °F - 51.8 °F 94% 29.87 in 7.0 mi Variable 4.6 mph - 0.01 in Rain Light Rain
7:19 AM 53.6 °F - 51.8 °F 94% 29.87 in 4.0 mi Variable 6.9 mph - 0.03 in Rain Light Rain
7:54 AM 54.0 °F - 51.1 °F 90% 29.86 in 5.0 mi Variable 5.8 mph - 0.05 in Rain Rain
8:54 AM 54.0 °F - 51.1 °F 90% 29.85 in 4.0 mi SSE 6.9 mph - 0.06 in Rain Rain
9:54 AM 54.0 °F - 52.0 °F 93% 29.82 in 6.0 mi SSE 8.1 mph - 0.12 in Rain Light Rain
10:16 AM 55.4 °F - 53.6 °F 94% 29.81 in 2.0 mi SSE 6.9 mph 18.4 mph 0.10 in Rain Heavy Rain
10:23 AM 55.4 °F - 53.6 °F 94% 29.80 in 1.8 mi SE 8.1 mph - 0.14 in Rain Heavy Rain
10:28 AM 55.4 °F - 53.6 °F 94% 29.80 in 2.0 mi SE 6.9 mph - 0.16 in Rain Heavy Rain
10:47 AM 55.4 °F - 53.6 °F 94% 29.79 in 5.0 mi SSE 8.1 mph - 0.21 in Rain Light Rain
10:54 AM 55.0 °F - 53.1 °F 93% 29.79 in 9.0 mi Variable 6.9 mph - 0.22 in Rain Light Rain
11:30 AM 55.4 °F - 53.6 °F 94% 29.77 in 2.0 mi SSE 8.1 mph - 0.05 in Rain Heavy Rain
11:36 AM 55.4 °F - 53.6 °F 94% 29.76 in 2.0 mi SSE 9.2 mph 18.4 mph 0.08 in Rain Heavy Rain
11:43 AM 55.4 °F - 53.6 °F 94% 29.76 in 3.0 mi SSE 10.4 mph 25.3 mph 0.09 in Rain Light Rain
11:54 AM 55.9 °F - 54.0 °F 93% 29.75 in 6.0 mi South 10.4 mph 20.7 mph 0.10 in Rain Light Rain
12:54 PM 57.0 °F - 54.0 °F 89% 29.72 in 10.0 mi South 9.2 mph 20.7 mph 0.04 in Rain Light Rain
1:04 PM 57.2 °F - 53.6 °F 88% 29.73 in 1.8 mi South 10.4 mph 16.1 mph 0.07 in Rain Heavy Rain
1:16 PM 55.4 °F - 53.6 °F 94% 29.74 in 0.8 mi WSW 12.7 mph 19.6 mph 0.27 in Rain Heavy Rain
1:26 PM 55.4 °F - 55.4 °F 100% 29.74 in 1.0 mi WSW 8.1 mph - 0.36 in Rain Heavy Rain
1:39 PM 55.4 °F - 55.4 °F 100% 29.73 in 1.8 mi SW 5.8 mph - 0.39 in Rain Rain
1:45 PM 55.4 °F - 55.4 °F 100% 29.73 in 3.0 mi SW 6.9 mph - 0.40 in Rain Light Rain
1:51 PM 55.4 °F - 55.4 °F 100% 29.73 in 2.5 mi West 3.5 mph - 0.41 in Rain Light Rain
1:54 PM 55.9 °F - 55.0 °F 97% 29.72 in 2.0 mi Variable 3.5 mph - 0.42 in Rain Rain
1:59 PM 55.4 °F - 55.4 °F 100% 29.72 in 1.8 mi WSW 3.5 mph - 0.01 in Rain Rain
2:07 PM 55.4 °F - 55.4 °F 100% 29.72 in 3.0 mi Calm Calm - 0.01 in Rain Light Rain
2:32 PM 55.4 °F - 53.6 °F 94% 29.71 in 10.0 mi WSW 4.6 mph - 0.02 in Rain Light Rain
2:39 PM 57.2 °F - 55.4 °F 94% 29.71 in 10.0 mi Calm Calm - 0.02 in Rain Light Rain
2:54 PM 57.0 °F - 55.0 °F 93% 29.70 in 10.0 mi Calm Calm - 0.02 in   Overcast
3:07 PM 57.2 °F - 55.4 °F 94% 29.70 in 10.0 mi Variable 3.5 mph - N/A   Overcast
3:54 PM 54.0 °F - 48.9 °F 83% 29.72 in 10.0 mi WNW 10.4 mph 19.6 mph 0.01 in   Overcast
4:54 PM 52.0 °F - 45.0 °F 77% 29.75 in 10.0 mi WNW 10.4 mph 21.9 mph N/A   Overcast
5:54 PM 50.0 °F - 42.1 °F 74% 29.80 in 10.0 mi WNW 12.7 mph 20.7 mph N/A   Overcast
6:18 PM 48.2 °F - 42.8 °F 82% 29.81 in 10.0 mi WNW 9.2 mph - N/A   Overcast
6:54 PM 48.0 °F - 39.9 °F 74% 29.82 in 10.0 mi WNW 5.8 mph - N/A   Mostly Cloudy
7:21 PM 48.2 °F - 39.2 °F 71% 29.84 in 10.0 mi WNW 9.2 mph - N/A   Overcast
7:46 PM 46.4 °F 41.5 °F 37.4 °F 71% 29.85 in 10.0 mi WNW 10.4 mph - N/A   Mostly Cloudy
7:54 PM 45.0 °F 40.1 °F 37.0 °F 74% 29.86 in 10.0 mi WNW 9.2 mph 16.1 mph N/A   Scattered Clouds
8:54 PM 43.0 °F 38.8 °F 34.0 °F 71% 29.87 in 10.0 mi NW 6.9 mph - N/A   Clear
9:54 PM 42.1 °F 37.1 °F 33.1 °F 70% 29.88 in 10.0 mi WNW 8.1 mph - N/A   Clear
10:54 PM 41.0 °F 37.1 °F 33.1 °F 73% 29.90 in 10.0 mi WNW 5.8 mph - N/A   Clear
11:54 PM 39.9 °F 33.9 °F 30.9 °F 70% 29.90 in 10.0 mi WNW 9.2 mph - N/A   Clear